Miscellaneous Local Product
Issued by NWS North Platte, NE

Home | Current Version | Previous Version | Graphics & Text | Print | Product List | Glossary On
Versions: 1 2 3 4 5 6 7 8 9 10 11 12 13 14 15 16 17 18 19 20 21 22 23 24 25 26 27 28 29 30 31 32 33 34 35 36 37 38 39 40 41 42 43 44 45 46 47 48 49 50
000
AXUS43 KLBF 262210
MISLBF


WESTERN AND NORTH CENTRAL NEBRASKA HOURLY WEATHER ROUNDUP
NATIONAL WEATHER SERVICE NORTH PLATTE NE
400 PM CST THU FEB 26 2015

***STATIONS NOT REPORTING VARIABLES SUCH AS SKY/WEATHER OR
PRESSURE ARE PROVIDED BY THE NEBRASKA DEPARTMENT OF
ROADS...RAWS...AND APRS NETWORKS...AND ARE NOT UNDER
NATIONAL WEATHER SERVICE QUALITY CONTROL***

...OBSERVATIONS IN AND NEAR THE EASTERN PANHANDLE OF NEBRASKA...

CITY           SKY/WX    TMP DP  RH WIND       PRES   REMARKS
PINE RIDGE     MOSUNNY   13  -2  51 NE6       30.36F WCI   4
CHADRON        PTSUNNY   13   1  59 N8        30.37S WCI   2
ALLIANCE       PTSUNNY   12   1  61 N14       30.29S WCI  -3
SIDNEY         LGT SNOW  16   8  71 NE8       30.25S WCI   5
WHITECLAY        N/A     13  -3  50 SE6         N/A  WCI   4
CRESCENT LAKE    N/A     14  -4  45 N7G15       N/A  WCI   4
LISCO            N/A     20  -3  36 SE9         N/A  WCI   9
BIG SPRINGS      N/A     21   3  45 NE6         N/A  WCI  13
LEWELLEN         N/A     16  -6  37 E8          N/A  WCI   5
$$

...OBSERVATIONS IN NORTH CENTRAL NEBRASKA...

CITY           SKY/WX    TMP DP  RH WIND       PRES   REMARKS
VALENTINE      MOSUNNY   13  -3  49 N9        30.43S WCI   1
THEDFORD       SUNNY     17  -4  39 N13       30.38R WCI   3
AINSWORTH      MOSUNNY   11  -3  52 NW14      30.43R WCI  -5
O`NEILL        CLOUDY    11   1  64 N13       30.47S WCI  -4
ORD            SUNNY     16  -7  35 N14G23    30.43F WCI   2
BROKEN BOW     SUNNY     18  -5  36 N17       30.39S WCI   3
BROWNLEE         N/A     30  12  47 W14         N/A  WCI  20
SPRINGVIEW       N/A     10  -3  55 NW8G17      N/A  WCI  -2
BREWSTER         N/A     19  -1  41 N10         N/A  WCI   8
ROSE             N/A     21   7  55 SW8         N/A  WCI  11
NEWPORT          N/A     18   4  54 S10         N/A  WCI   6
SARGENT          N/A     16  -3  42 NE5G12      N/A  WCI   9
COMSTOCK         N/A     22  -3  34 N9          N/A  WCI  12
CHAMBERS         N/A     14  -3  46 NW8         N/A  WCI   3
EWING            N/A     11   1  64 NW9         N/A  WCI  -2
$$

...OBSERVATIONS IN SOUTHWEST NEBRASKA AND FAR NORTHEAST COLORADO...

CITY           SKY/WX    TMP DP  RH WIND       PRES   REMARKS
WRAY           CLOUDY    20   8  60 E3        30.29S
IMPERIAL         N/A     22   0  38 N12       30.31S WCI  10
OGALLALA       PTSUNNY   19   1  44 N8        30.33R WCI   9
NORTH PLATTE   SUNNY     21  -5  31 N12G22    30.35F WCI   9
MCCOOK         SUNNY     25  -4  28 N8G20     30.36F WCI  16
LEXINGTON      SUNNY     20  -7  29 N15       30.39F WCI   6
PAXTON           N/A     19   2  48 N8          N/A  WCI   9
BRADY            N/A     21  -5  32 MISG        N/A
GOTHENBURG       N/A     19  -6  33 N10         N/A  WCI   7
CALLAWAY         N/A     17  -5  37 N14         N/A  WCI   3
$$

...NORTH PLATTE AREA...

CITY           SKY/WX    TMP DP  RH WIND       PRES   REMARKS
AIRPORT        SUNNY     21  -5  31 N12G22    30.35F WCI   9
DOWNTOWN         N/A     18  -4  38 N8G16       N/A  WCI   8
$$

...SOME WEATHER OBSERVATIONS FROM AROUND THE REGION...

CITY           SKY/WX    TMP DP  RH WIND       PRES   REMARKS
DENVER         LGT SNOW  16  11  80 E12       30.11S VSB 1   WCI   3
LARAMIE        CLOUDY    12   3  67 S16       29.94  WCI  -5
CHEYENNE       LGT SNOW  11   4  73 E9        30.07F VSB 3/4 WCI  -2
SCOTTSBLUFF    CLOUDY    17   2  51 E6        30.27F WCI   9
RAPID CITY     SUNNY      9  -2  61 N14       30.39S WCI  -7
PIERRE         MOSUNNY   12  -3  51 N12       30.51S WCI  -2
WINNER         FAIR      13  -5  44 N13       30.48S WCI  -2
SIOUX FALLS    PTSUNNY    5  -4  66 N15       30.49R WCI -13
OMAHA          PTSUNNY   11   2  67 N15       30.53R WCI  -5
GRAND ISLAND   SUNNY     16  -5  39 N12G24    30.46S WCI   3
KANSAS CITY    MOSUNNY   19   1  45 N17G23    30.44R WCI   4
WICHITA        MOSUNNY   26  -5  25 N17       30.42S WCI  13
HAYS           SUNNY     23  -6  28 NE17      30.40F WCI   9
LIBERAL        PTSUNNY   23   7  50 NE13      30.34S WCI  11
GOODLAND       CLOUDY    19   6  57 N6        30.29S WCI  11
$$



USA.gov is the U.S. government's official web portal to all federal, state and local government web resources and services.